Location: Benque
(43.2594°N, 0.9178°E)
Time: 04:22:36
(UTC+00:00)

Meteor 2-12 Rocket - Pass Details

Date: 24 January 2020
Orbit: 936 x 957 km, 82.5° (Epoch: 19 February)

Event Time Altitude Azimuth Distance (km) Brightness Sun altitude
Rises 18:28:56 0° 172° (S) 3,582 7.5 -16.7°
Reaches altitude 10° 18:31:27 10° 168° (SSE) 2,641 6.8 -17.1°
Maximum altitude 18:37:18 55° 92° (E) 1,118 4.4 -18.2°
Drops below altitude 10° 18:43:11 10° 17° (NNE) 2,658 6.5 -19.2°
Sets 18:45:43 0° 13° (NNE) 3,607 7.3 -19.7°
